QPF
0.03 0.04 0.05 0.06 0.09 0.13 0.18 0.22 0.22 0.21 0.25 0.20 0.13 0.12 0.13 0.12 0.17 0.15 0.09 0.05 0.03 0.02 0.02 0.01 0.01 0.02 0.02 0.02 0.03 0.02 0.01 0.01 0.00 0.01 0.03 0.03 0.03 0.02 0.02 0.02 0.02 0.02 0.02
0.03 0.04 0.08 0.09 0.10 0.09 0.14 0.17 0.16 0.15 0.15 0.14 0.10 0.10 0.10 0.09 0.11 0.15 0.10 0.06 0.04 0.03 0.02 0.02 0.01 0.01 0.01 0.01 0.01 0.01 0.02 0.01 0.00 0.00 0.02 0.02 0.02 0.02 0.02 0.02 0.02 0.01 0.01
0.04 0.06 0.05 0.05 0.08 0.08 0.09 0.11 0.14 0.13 0.10 0.11 0.11 0.10 0.13 0.13 0.12 0.12 0.08 0.05 0.04 0.04 0.03 0.02 0.02 0.01 0.01 0.01 0.00 0.01 0.01 0.01 0.00 0.00 0.01 0.01 0.01 0.01 0.01 0.01 0.01 0.01 0.01
0.03 0.03 0.04 0.05 0.06 0.08 0.09 0.12 0.15 0.15 0.10 0.09 0.08 0.05 0.06 0.05 0.06 0.07 0.06 0.05 0.04 0.03 0.03 0.03 0.02 0.01 0.01 0.01 0.01 0.00 0.00 0.01 0.01 0.00 0.00 0.00 0.00 0.01 0.01 0.01 0.01 0.01 0.00
0.03 0.03 0.04 0.04 0.09 0.14 0.14 0.16 0.16 0.17 0.11 0.09 0.08 0.05 0.05 0.05 0.05 0.06 0.07 0.06 0.05 0.03 0.03 0.02 0.02 0.02 0.01 0.01 0.01 0.01 0.00 0.00 0.00 0.00 0.00 0.00 0.01 0.01 0.00 0.01 0.01 0.01 0.00
0.02 0.02 0.03 0.04 0.09 0.13 0.13 0.15 0.16 0.12 0.10 0.11 0.11 0.07 0.06 0.05 0.04 0.06 0.06 0.06 0.05 0.04 0.03 0.03 0.02 0.02 0.01 0.01 0.01 0.01 0.00 0.00 0.00 0.01 0.00 0.00 0.00 0.00 0.00 0.00 0.00 0.01 0.00
0.01 0.01 0.02 0.04 0.07 0.07 0.07 0.09 0.10 0.09 0.09 0.10 0.10 0.09 0.08 0.06 0.04 0.04 0.05 0.05 0.05 0.04 0.03 0.02 0.02 0.01 0.00 0.00 0.01 0.01 0.00 0.01 0.01 0.00 0.00 0.00 0.00 0.00 0.00 0.00 0.00 0.00 0.00
0.00 0.01 0.01 0.03 0.06 0.09 0.08 0.07 0.07 0.06 0.08 0.09 0.09 0.11 0.12 0.10 0.07 0.05 0.05 0.04 0.04 0.03 0.02 0.02 0.02 0.01 0.00 0.00 0.00 0.00 0.00 0.00 0.01 0.00 0.00 0.00 0.00 0.00 0.00 0.00 0.00 0.00 0.00
0.01 0.01 0.01 0.02 0.02 0.04 0.04 0.05 0.06 0.06 0.07 0.07 0.07 0.09 0.12 0.14 0.12 0.10 0.09 0.06 0.05 0.04 0.03 0.02 0.01 0.01 0.01 0.00 0.01 0.01 0.00 0.00 0.00 0.00 0.01 0.00 0.00 0.00 0.00 0.00 0.01 0.01 0.01
0.01 0.01 0.02 0.01 0.01 0.01 0.03 0.04 0.06 0.08 0.08 0.07 0.06 0.06 0.10 0.13 0.14 0.13 0.10 0.07 0.06 0.05 0.04 0.03 0.02 0.01 0.01 0.01 0.01 0.00 0.00 0.00 0.00 0.00 0.01 0.00 0.00 0.00 0.00 0.00 0.00 0.01 0.01
0.02 0.02 0.02 0.01 0.01 0.01 0.03 0.04 0.06 0.07 0.06 0.06 0.06 0.05 0.07 0.10 0.13 0.15 0.11 0.07 0.05 0.04 0.03 0.03 0.03 0.02 0.01 0.01 0.01 0.01 0.02 0.02 0.01 0.01 0.01 0.01 0.01 0.01 0.00 0.00 0.00 0.00 0.00
0.03 0.03 0.03 0.01 0.01 0.02 0.02 0.03 0.03 0.03 0.04 0.04 0.05 0.06 0.07 0.08 0.09 0.12 0.11 0.07 0.04 0.03 0.03 0.03 0.03 0.03 0.03 0.03 0.02 0.01 0.01 0.02 0.01 0.01 0.01 0.01 0.01 0.01 0.01 0.01 0.01 0.00 0.00
0.03 0.04 0.04 0.02 0.01 0.01 0.01 0.02 0.02 0.02 0.03 0.03 0.04 0.06 0.07 0.06 0.07 0.08 0.07 0.05 0.05 0.04 0.04 0.05 0.04 0.04 0.03 0.02 0.03 0.03 0.02 0.02 0.02 0.01 0.01 0.01 0.01 0.01 0.01 0.01 0.01 0.01 0.01
0.05 0.05 0.07 0.04 0.01 0.01 0.02 0.02 0.02 0.02 0.02 0.03 0.04 0.04 0.04 0.03 0.04 0.04 0.05 0.05 0.06 0.06 0.06 0.05 0.05 0.05 0.04 0.03 0.03 0.03 0.03 0.03 0.02 0.02 0.02 0.02 0.02 0.02 0.02 0.02 0.02 0.03 0.02
0.06 0.05 0.05 0.05 0.03 0.02 0.02 0.03 0.03 0.02 0.02 0.03 0.05 0.04 0.03 0.03 0.05 0.05 0.06 0.07 0.08 0.08 0.08 0.08 0.07 0.07 0.06 0.04 0.04 0.04 0.05 0.05 0.05 0.03 0.03 0.03 0.04 0.05 0.05 0.05 0.04 0.04 0.03
0.07 0.07 0.06 0.05 0.03 0.02 0.01 0.02 0.03 0.03 0.03 0.05 0.08 0.07 0.06 0.07 0.07 0.07 0.07 0.09 0.09 0.09 0.10 0.13 0.13 0.11 0.10 0.09 0.09 0.09 0.08 0.09 0.08 0.08 0.07 0.07 0.07 0.07 0.06 0.05 0.05 0.05 0.04
0.09 0.09 0.09 0.08 0.05 0.04 0.04 0.03 0.03 0.03 0.03 0.05 0.09 0.09 0.09 0.10 0.12 0.12 0.11 0.09 0.10 0.10 0.10 0.11 0.14 0.14 0.14 0.14 0.13 0.12 0.11 0.11 0.09 0.07 0.06 0.06 0.07 0.07 0.06 0.05 0.05 0.04 0.03
0.12 0.12 0.11 0.11 0.09 0.08 0.08 0.08 0.05 0.04 0.05 0.06 0.07 0.09 0.10 0.10 0.12 0.14 0.12 0.11 0.11 0.12 0.12 0.13 0.14 0.13 0.12 0.15 0.14 0.14 0.15 0.13 0.08 0.06 0.07 0.08 0.08 0.07 0.06 0.04 0.04 0.03 0.03
0.12 0.18 0.18 0.15 0.12 0.13 0.13 0.11 0.08 0.07 0.07 0.07 0.08 0.08 0.09 0.10 0.12 0.13 0.15 0.15 0.16 0.15 0.15 0.15 0.15 0.15 0.16 0.20 0.20 0.19 0.16 0.12 0.10 0.09 0.09 0.08 0.07 0.06 0.06 0.05 0.03 0.03 0.03
0.16 0.20 0.21 0.20 0.18 0.20 0.16 0.11 0.10 0.11 0.12 0.12 0.11 0.12 0.13 0.14 0.15 0.16 0.18 0.20 0.19 0.18 0.17 0.18 0.19 0.19 0.18 0.19 0.16 0.14 0.10 0.08 0.08 0.07 0.06 0.05 0.04 0.04 0.04 0.03 0.02 0.02 0.02
0.15 0.17 0.17 0.16 0.13 0.14 0.17 0.17 0.17 0.19 0.18 0.19 0.19 0.18 0.18 0.20 0.21 0.22 0.22 0.21 0.21 0.18 0.17 0.17 0.17 0.14 0.12 0.10 0.09 0.09 0.08 0.07 0.06 0.04 0.03 0.03 0.03 0.03 0.03 0.03 0.02 0.02 0.01
0.09 0.11 0.13 0.13 0.14 0.15 0.18 0.20 0.19 0.20 0.21 0.21 0.24 0.24 0.22 0.20 0.19 0.19 0.19 0.17 0.17 0.16 0.14 0.13 0.12 0.12 0.10 0.09 0.09 0.10 0.09 0.07 0.05 0.04 0.04 0.04 0.04 0.03 0.04 0.04 0.04 0.03 0.02
0.07 0.09 0.10 0.10 0.13 0.15 0.16 0.19 0.18 0.18 0.19 0.18 0.20 0.21 0.16 0.15 0.14 0.13 0.12 0.11 0.10 0.11 0.12 0.12 0.12 0.12 0.11 0.10 0.09 0.09 0.07 0.07 0.06 0.06 0.08 0.08 0.07 0.06 0.06 0.06 0.05 0.04 0.03
0.07 0.07 0.08 0.10 0.13 0.14 0.13 0.12 0.11 0.11 0.12 0.13 0.13 0.11 0.10 0.11 0.12 0.11 0.09 0.08 0.08 0.09 0.11 0.14 0.14 0.14 0.13 0.12 0.10 0.09 0.08 0.07 0.07 0.07 0.09 0.09 0.08 0.06 0.03 0.02 0.02 0.01 0.01
0.08 0.09 0.09 0.09 0.11 0.13 0.11 0.09 0.09 0.09 0.09 0.09 0.09 0.07 0.07 0.08 0.10 0.12 0.12 0.11 0.11 0.10 0.11 0.11 0.10 0.09 0.08 0.08 0.06 0.05 0.04 0.04 0.03 0.02 0.02 0.02 0.02 0.02 0.01 0.01 0.01 0.01 0.01
0.07 0.07 0.08 0.08 0.08 0.10 0.09 0.07 0.07 0.07 0.07 0.07 0.06 0.06 0.05 0.05 0.05 0.06 0.06 0.06 0.05 0.05 0.04 0.04 0.03 0.03 0.02 0.02 0.01 0.01 0.01 0.01 0.01 0.00 0.00 0.01 0.00 0.01 0.01 0.01 0.01 0.01 0.01
MSLP
1007.99 1008.19 1008.42 1008.68 1008.98 1009.33 1009.74 1010.21 1010.74 1011.30 1011.87 1012.40 1012.86 1013.24 1013.54 1013.75 1013.92 1014.08 1014.25 1014.48 1014.76 1015.11 1015.50 1015.92 1016.34 1016.74 1017.12 1017.46 1017.78 1018.10 1018.42 1018.75 1019.09 1019.43 1019.73 1019.98 1020.15 1020.23 1020.21 1020.12 1019.97 1019.82 1019.68
1008.45 1008.71 1008.97 1009.20 1009.42 1009.65 1009.92 1010.27 1010.71 1011.23 1011.80 1012.39 1012.94 1013.42 1013.79 1014.06 1014.24 1014.36 1014.48 1014.63 1014.85 1015.14 1015.51 1015.93 1016.37 1016.80 1017.21 1017.57 1017.89 1018.20 1018.49 1018.80 1019.12 1019.45 1019.77 1020.05 1020.26 1020.39 1020.41 1020.33 1020.19 1020.00 1019.82
1008.74 1009.06 1009.35 1009.58 1009.74 1009.89 1010.06 1010.31 1010.68 1011.17 1011.76 1012.41 1013.05 1013.62 1014.08 1014.41 1014.61 1014.71 1014.78 1014.86 1015.01 1015.24 1015.56 1015.96 1016.39 1016.83 1017.24 1017.61 1017.93 1018.21 1018.48 1018.75 1019.06 1019.38 1019.71 1020.03 1020.29 1020.48 1020.55 1020.52 1020.39 1020.19 1019.97
1008.82 1009.20 1009.53 1009.78 1009.93 1010.02 1010.13 1010.31 1010.62 1011.09 1011.69 1012.39 1013.11 1013.77 1014.31 1014.70 1014.93 1015.04 1015.08 1015.11 1015.19 1015.36 1015.63 1015.99 1016.40 1016.83 1017.24 1017.60 1017.91 1018.17 1018.41 1018.66 1018.95 1019.27 1019.61 1019.96 1020.27 1020.51 1020.64 1020.65 1020.54 1020.35 1020.10
1008.75 1009.17 1009.55 1009.82 1009.98 1010.05 1010.12 1010.24 1010.51 1010.95 1011.56 1012.28 1013.05 1013.79 1014.40 1014.86 1015.13 1015.26 1015.29 1015.29 1015.33 1015.46 1015.68 1016.01 1016.40 1016.82 1017.22 1017.57 1017.86 1018.11 1018.33 1018.57 1018.83 1019.14 1019.49 1019.86 1020.20 1020.48 1020.66 1020.71 1020.64 1020.45 1020.19
1008.59 1009.05 1009.47 1009.78 1009.95 1010.02 1010.05 1010.14 1010.36 1010.76 1011.34 1012.07 1012.86 1013.64 1014.31 1014.83 1015.15 1015.32 1015.37 1015.38 1015.41 1015.51 1015.72 1016.02 1016.40 1016.80 1017.19 1017.54 1017.83 1018.07 1018.28 1018.50 1018.75 1019.05 1019.39 1019.76 1020.11 1020.42 1020.62 1020.71 1020.66 1020.49 1020.23
1008.45 1008.93 1009.38 1009.72 1009.91 1009.98 1009.99 1010.03 1010.20 1010.54 1011.08 1011.77 1012.56 1013.35 1014.06 1014.62 1015.00 1015.22 1015.32 1015.36 1015.41 1015.52 1015.73 1016.03 1016.40 1016.80 1017.19 1017.54 1017.83 1018.07 1018.27 1018.47 1018.70 1018.98 1019.30 1019.65 1019.99 1020.30 1020.52 1020.62 1020.60 1020.46 1020.22
1008.41 1008.90 1009.37 1009.73 1009.93 1010.00 1009.98 1009.99 1010.09 1010.37 1010.84 1011.47 1012.22 1012.99 1013.71 1014.30 1014.74 1015.02 1015.18 1015.27 1015.37 1015.51 1015.73 1016.04 1016.41 1016.81 1017.20 1017.55 1017.85 1018.08 1018.28 1018.47 1018.68 1018.93 1019.21 1019.53 1019.84 1020.13 1020.34 1020.46 1020.46 1020.35 1020.15
1008.51 1009.00 1009.47 1009.84 1010.05 1010.11 1010.08 1010.05 1010.10 1010.31 1010.70 1011.26 1011.94 1012.68 1013.38 1013.99 1014.46 1014.79 1015.02 1015.18 1015.32 1015.51 1015.75 1016.07 1016.44 1016.84 1017.23 1017.57 1017.86 1018.10 1018.29 1018.46 1018.65 1018.86 1019.10 1019.37 1019.64 1019.90 1020.10 1020.22 1020.25 1020.18 1020.03
1008.75 1009.22 1009.68 1010.04 1010.26 1010.32 1010.29 1010.24 1010.25 1010.40 1010.73 1011.21 1011.83 1012.50 1013.17 1013.77 1014.26 1014.63 1014.91 1015.12 1015.32 1015.54 1015.81 1016.13 1016.49 1016.87 1017.24 1017.57 1017.85 1018.07 1018.24 1018.40 1018.56 1018.73 1018.93 1019.15 1019.39 1019.60 1019.78 1019.91 1019.96 1019.94 1019.85
1009.05 1009.50 1009.94 1010.30 1010.51 1010.59 1010.57 1010.53 1010.55 1010.67 1010.95 1011.38 1011.92 1012.53 1013.15 1013.72 1014.20 1014.59 1014.90 1015.15 1015.38 1015.62 1015.89 1016.20 1016.54 1016.89 1017.22 1017.51 1017.75 1017.95 1018.11 1018.24 1018.37 1018.52 1018.68 1018.87 1019.06 1019.25 1019.41 1019.54 1019.62 1019.65 1019.62
1009.33 1009.75 1010.16 1010.51 1010.73 1010.84 1010.87 1010.88 1010.92 1011.06 1011.33 1011.72 1012.21 1012.75 1013.31 1013.83 1014.29 1014.67 1014.98 1015.24 1015.48 1015.73 1015.99 1016.27 1016.57 1016.86 1017.13 1017.37 1017.57 1017.73 1017.86 1017.98 1018.09 1018.21 1018.35 1018.51 1018.68 1018.84 1019.00 1019.13 1019.23 1019.31 1019.34
1009.49 1009.87 1010.26 1010.59 1010.83 1010.99 1011.09 1011.18 1011.30 1011.49 1011.78 1012.16 1012.60 1013.09 1013.58 1014.04 1014.45 1014.80 1015.09 1015.35 1015.59 1015.82 1016.06 1016.31 1016.55 1016.78 1016.99 1017.17 1017.32 1017.44 1017.54 1017.63 1017.73 1017.84 1017.97 1018.11 1018.27 1018.42 1018.58 1018.71 1018.84 1018.94 1019.02
1009.49 1009.83 1010.17 1010.48 1010.75 1010.98 1011.17 1011.37 1011.59 1011.86 1012.19 1012.58 1013.00 1013.43 1013.86 1014.25 1014.60 1014.90 1015.17 1015.41 1015.64 1015.87 1016.09 1016.30 1016.50 1016.68 1016.83 1016.95 1017.04 1017.11 1017.18 1017.25 1017.34 1017.45 1017.59 1017.73 1017.89 1018.04 1018.19 1018.34 1018.47 1018.59 1018.70
1009.33 1009.60 1009.89 1010.19 1010.49 1010.78 1011.08 1011.39 1011.72 1012.09 1012.48 1012.88 1013.28 1013.66 1014.02 1014.35 1014.64 1014.90 1015.15 1015.38 1015.62 1015.85 1016.07 1016.28 1016.45 1016.59 1016.69 1016.76 1016.80 1016.83 1016.87 1016.93 1017.02 1017.13 1017.27 1017.43 1017.60 1017.76 1017.91 1018.05 1018.18 1018.30 1018.42
1009.05 1009.25 1009.49 1009.76 1010.08 1010.43 1010.82 1011.24 1011.68 1012.13 1012.58 1012.99 1013.38 1013.71 1014.01 1014.27 1014.52 1014.75 1015.00 1015.25 1015.52 1015.79 1016.04 1016.27 1016.45 1016.58 1016.65 1016.68 1016.69 1016.69 1016.71 1016.75 1016.84 1016.96 1017.11 1017.28 1017.46 1017.63 1017.78 1017.91 1018.03 1018.14 1018.24
1008.76 1008.87 1009.05 1009.30 1009.62 1010.02 1010.48 1010.98 1011.51 1012.02 1012.50 1012.92 1013.28 1013.58 1013.83 1014.04 1014.26 1014.50 1014.76 1015.06 1015.39 1015.73 1016.06 1016.34 1016.56 1016.71 1016.79 1016.81 1016.80 1016.77 1016.77 1016.80 1016.88 1017.00 1017.17 1017.35 1017.53 1017.70 1017.85 1017.97 1018.07 1018.14 1018.21
1008.55 1008.59 1008.71 1008.92 1009.23 1009.65 1010.15 1010.71 1011.28 1011.83 1012.33 1012.74 1013.07 1013.33 1013.54 1013.74 1013.95 1014.21 1014.53 1014.91 1015.34 1015.78 1016.20 1016.57 1016.86 1017.06 1017.16 1017.19 1017.17 1017.13 1017.11 1017.12 1017.19 1017.31 1017.47 1017.66 1017.85 1018.02 1018.16 1018.26 1018.32 1018.36 1018.39
1008.53 1008.51 1008.56 1008.74 1009.03 1009.45 1009.97 1010.55 1011.14 1011.69 1012.17 1012.57 1012.87 1013.10 1013.29 1013.49 1013.72 1014.03 1014.43 1014.91 1015.45 1016.01 1016.54 1017.01 1017.39 1017.64 1017.78 1017.83 1017.80 1017.75 1017.71 1017.71 1017.76 1017.87 1018.02 1018.21 1018.39 1018.55 1018.68 1018.76 1018.79 1018.79 1018.77
1008.74 1008.67 1008.69 1008.83 1009.11 1009.51 1010.02 1010.59 1011.16 1011.70 1012.16 1012.53 1012.81 1013.03 1013.22 1013.43 1013.71 1014.09 1014.57 1015.15 1015.80 1016.47 1017.11 1017.67 1018.12 1018.43 1018.61 1018.67 1018.65 1018.58 1018.52 1018.50 1018.53 1018.62 1018.76 1018.93 1019.11 1019.26 1019.37 1019.43 1019.44 1019.40 1019.33
1009.18 1009.09 1009.09 1009.21 1009.47 1009.86 1010.34 1010.88 1011.44 1011.95 1012.38 1012.73 1013.00 1013.22 1013.43 1013.68 1014.01 1014.46 1015.02 1015.68 1016.41 1017.17 1017.89 1018.51 1019.01 1019.36 1019.55 1019.62 1019.60 1019.52 1019.45 1019.40 1019.41 1019.48 1019.61 1019.77 1019.93 1020.07 1020.17 1020.21 1020.19 1020.11 1020.00
1009.81 1009.73 1009.73 1009.85 1010.09 1010.46 1010.92 1011.44 1011.96 1012.44 1012.86 1013.21 1013.49 1013.73 1013.97 1014.26 1014.65 1015.15 1015.76 1016.48 1017.26 1018.05 1018.80 1019.45 1019.96 1020.31 1020.51 1020.57 1020.54 1020.46 1020.37 1020.31 1020.30 1020.36 1020.47 1020.61 1020.76 1020.89 1020.98 1021.00 1020.96 1020.85 1020.70
1010.56 1010.51 1010.54 1010.66 1010.91 1011.26 1011.70 1012.19 1012.69 1013.16 1013.57 1013.92 1014.22 1014.50 1014.79 1015.13 1015.56 1016.09 1016.74 1017.47 1018.25 1019.03 1019.75 1020.37 1020.86 1021.18 1021.36 1021.41 1021.37 1021.27 1021.18 1021.11 1021.10 1021.15 1021.25 1021.39 1021.53 1021.65 1021.72 1021.73 1021.67 1021.54 1021.35
1011.35 1011.35 1011.42 1011.57 1011.81 1012.16 1012.59 1013.06 1013.54 1014.00 1014.42 1014.79 1015.13 1015.45 1015.79 1016.17 1016.63 1017.18 1017.82 1018.52 1019.26 1019.98 1020.64 1021.19 1021.61 1021.89 1022.03 1022.06 1022.00 1021.91 1021.82 1021.76 1021.76 1021.81 1021.91 1022.04 1022.18 1022.29 1022.35 1022.35 1022.28 1022.13 1021.91
1012.13 1012.20 1012.30 1012.48 1012.74 1013.08 1013.49 1013.94 1014.41 1014.87 1015.30 1015.70 1016.07 1016.44 1016.82 1017.25 1017.73 1018.27 1018.88 1019.53 1020.19 1020.81 1021.38 1021.84 1022.18 1022.40 1022.50 1022.50 1022.45 1022.36 1022.29 1022.25 1022.26 1022.32 1022.43 1022.56 1022.69 1022.79 1022.84 1022.83 1022.75 1022.58 1022.35
1012.89 1013.01 1013.16 1013.36 1013.62 1013.95 1014.34 1014.77 1015.22 1015.67 1016.11 1016.53 1016.94 1017.35 1017.78 1018.23 1018.72 1019.25 1019.81 1020.39 1020.96 1021.49 1021.95 1022.31 1022.57 1022.73 1022.79 1022.78 1022.73 1022.67 1022.62 1022.61 1022.64 1022.72 1022.83 1022.96 1023.08 1023.17 1023.21 1023.19 1023.09 1022.91 1022.66
Thickness
5792 5788 5783 5777 5770 5764 5758 5754 5749 5746 5744 5741 5738 5735 5734 5736 5737 5739 5740 5740 5740 5740 5739 5739 5737 5737 5735 5733 5732 5730 5728 5726 5726 5722 5718 5719 5721 5721 5720 5719 5718 5717 5715
5786 5784 5780 5775 5769 5763 5758 5754 5750 5747 5745 5744 5741 5738 5737 5736 5736 5738 5738 5739 5739 5739 5739 5738 5737 5736 5734 5732 5731 5729 5726 5725 5725 5720 5712 5708 5711 5716 5720 5719 5718 5718 5717
5785 5782 5778 5773 5768 5763 5759 5756 5751 5748 5746 5744 5740 5737 5734 5733 5732 5734 5736 5738 5738 5738 5738 5737 5736 5735 5734 5732 5731 5730 5727 5723 5724 5724 5716 5707 5703 5709 5715 5717 5718 5718 5717
5786 5780 5776 5771 5768 5765 5760 5756 5752 5748 5746 5743 5740 5736 5733 5730 5732 5734 5735 5737 5737 5738 5737 5736 5735 5735 5734 5732 5731 5730 5728 5725 5721 5722 5722 5720 5717 5709 5707 5713 5717 5718 5717
5785 5779 5776 5772 5768 5765 5760 5755 5751 5747 5745 5743 5742 5738 5734 5733 5733 5734 5734 5734 5735 5736 5736 5735 5735 5734 5733 5732 5731 5730 5728 5727 5724 5722 5721 5720 5718 5716 5709 5706 5711 5715 5717
5784 5778 5775 5771 5766 5763 5759 5755 5750 5747 5746 5743 5741 5738 5735 5733 5732 5731 5731 5732 5732 5733 5734 5734 5733 5733 5732 5731 5730 5729 5728 5727 5725 5723 5722 5720 5717 5715 5712 5708 5708 5709 5715
5780 5775 5771 5767 5764 5761 5758 5755 5751 5748 5746 5744 5741 5739 5737 5735 5733 5732 5731 5731 5730 5730 5732 5733 5732 5731 5731 5730 5730 5729 5727 5726 5725 5723 5722 5722 5721 5720 5717 5712 5709 5708 5712
5779 5775 5771 5767 5764 5761 5758 5755 5751 5747 5745 5743 5741 5739 5737 5735 5734 5733 5732 5732 5731 5731 5732 5732 5731 5731 5730 5730 5729 5727 5726 5726 5724 5724 5723 5722 5722 5721 5720 5716 5710 5705 5705
5777 5774 5771 5767 5764 5761 5758 5755 5751 5747 5745 5743 5740 5738 5737 5735 5734 5733 5733 5732 5731 5731 5731 5730 5730 5730 5729 5728 5727 5725 5725 5724 5723 5722 5722 5721 5721 5721 5721 5719 5716 5708 5701
5773 5771 5769 5767 5764 5761 5759 5755 5751 5747 5744 5742 5741 5739 5737 5735 5734 5732 5730 5730 5729 5730 5729 5729 5728 5728 5727 5726 5725 5724 5723 5722 5721 5721 5720 5719 5719 5719 5718 5717 5715 5712 5707
5772 5769 5767 5766 5764 5761 5757 5753 5750 5746 5743 5742 5740 5738 5736 5734 5732 5730 5730 5729 5728 5727 5727 5727 5727 5726 5725 5725 5723 5722 5721 5719 5718 5718 5717 5716 5717 5715 5714 5713 5711 5709 5706
5772 5768 5765 5763 5761 5758 5755 5752 5749 5746 5744 5742 5739 5737 5734 5732 5730 5729 5728 5727 5726 5726 5726 5726 5725 5725 5724 5723 5721 5719 5719 5717 5715 5715 5714 5713 5713 5711 5710 5709 5707 5705 5704
5768 5764 5761 5760 5758 5756 5754 5751 5748 5746 5744 5741 5738 5735 5733 5731 5729 5728 5727 5726 5725 5724 5724 5724 5723 5723 5722 5721 5720 5718 5716 5715 5713 5712 5711 5710 5708 5706 5705 5704 5702 5701 5700
5766 5761 5757 5757 5756 5755 5753 5750 5747 5745 5743 5739 5736 5734 5732 5730 5729 5727 5726 5725 5724 5723 5721 5721 5721 5721 5720 5718 5716 5715 5713 5711 5710 5709 5708 5706 5705 5703 5701 5699 5697 5696 5693
5760 5758 5756 5754 5753 5751 5750 5749 5746 5744 5741 5738 5735 5733 5732 5730 5727 5725 5724 5723 5722 5721 5719 5718 5717 5717 5716 5714 5712 5711 5709 5707 5705 5704 5703 5702 5701 5700 5698 5696 5693 5690 5687
5754 5754 5754 5752 5750 5749 5748 5746 5745 5743 5739 5735 5733 5732 5730 5727 5724 5723 5721 5720 5719 5717 5715 5713 5712 5711 5711 5710 5709 5707 5705 5703 5700 5698 5697 5696 5695 5694 5693 5691 5689 5686 5682
5751 5750 5749 5750 5748 5747 5747 5744 5743 5741 5737 5734 5732 5730 5727 5724 5722 5720 5717 5715 5714 5713 5711 5709 5708 5707 5706 5706 5705 5703 5701 5698 5695 5694 5692 5691 5690 5688 5686 5684 5682 5680 5677
5744 5745 5745 5745 5745 5744 5743 5742 5740 5737 5734 5731 5729 5727 5724 5721 5719 5716 5714 5712 5710 5708 5706 5704 5703 5702 5701 5701 5700 5698 5695 5692 5690 5689 5686 5683 5681 5680 5678 5676 5673 5671 5669
5738 5739 5740 5740 5740 5739 5738 5737 5735 5732 5730 5727 5726 5724 5722 5718 5715 5712 5710 5707 5704 5702 5700 5699 5697 5695 5693 5693 5692 5690 5687 5684 5682 5680 5678 5676 5673 5671 5669 5666 5662 5660 5658
5732 5732 5732 5733 5732 5733 5734 5730 5728 5726 5723 5723 5722 5720 5718 5714 5710 5707 5704 5701 5698 5695 5693 5691 5689 5687 5685 5684 5684 5683 5679 5675 5672 5669 5667 5666 5663 5661 5658 5655 5651 5648 5646
5723 5723 5724 5723 5724 5727 5727 5723 5720 5718 5718 5717 5715 5713 5711 5708 5704 5700 5697 5694 5691 5687 5684 5681 5678 5676 5675 5674 5673 5672 5669 5665 5662 5659 5656 5653 5651 5649 5646 5643 5639 5636 5634
5712 5713 5713 5711 5713 5716 5717 5713 5709 5709 5709 5708 5705 5703 5701 5699 5696 5691 5687 5684 5682 5677 5673 5670 5666 5664 5662 5661 5661 5659 5657 5654 5650 5646 5643 5640 5638 5636 5633 5630 5627 5624 5621
5698 5699 5700 5700 5701 5703 5704 5701 5698 5698 5697 5695 5692 5690 5688 5685 5683 5680 5677 5674 5671 5667 5662 5658 5654 5650 5649 5648 5647 5645 5643 5641 5637 5633 5631 5628 5625 5623 5619 5616 5613 5610 5606
5686 5686 5686 5687 5687 5689 5690 5690 5689 5688 5687 5683 5680 5678 5675 5671 5669 5667 5664 5662 5659 5655 5651 5646 5641 5636 5633 5632 5632 5630 5627 5625 5622 5619 5616 5614 5610 5607 5603 5600 5597 5593 5589
5674 5675 5674 5673 5673 5675 5675 5676 5676 5677 5674 5670 5668 5665 5662 5658 5654 5650 5647 5646 5644 5643 5638 5632 5628 5625 5620 5617 5617 5615 5613 5610 5608 5604 5601 5597 5592 5589 5585 5581 5578 5574 5571
5662 5662 5661 5661 5662 5663 5663 5663 5664 5665 5663 5659 5655 5652 5649 5646 5642 5638 5632 5629 5627 5625 5622 5619 5617 5612 5608 5606 5604 5602 5600 5597 5594 5590 5583 5577 5572 5568 5564 5561 5557 5554 5550